Flag Weather past 2 weeks in Osøyro, Norway

Now
40 °F

Rain. Overcast.


Feels Like: 36 °F
Forecast: 39 / 42 °F
Wind: 6 mph from Southeast

Location: Bergen / Flesland

Current Time: Nov 21, 2014 at 8:32:32 PM

Latest Report: Nov 21, 2014 at 7:00 PM


Visibility: 4 mi

Pressure: 30.28 "Hg

Humidity: 94%

Dew point: 38 °F

Location of OsøyroLocation

Historic Weather in Osøyro — Graph

°F

Osøyro temperature yesterday

Maximum temperature yesterday: 42 °F (at 11:00 AM)
Minimum temperature yesterday: 39 °F (at 6:00 PM)
Average temperature yesterday: 40 °F

Past Weeks' High & Low Weather Summary

 TemperatureHumidityPressure
High55 °F (Nov 14, 2:00 PM)96% (Nov 9, 10:00 PM)30.47 "Hg (Nov 9, 10:00 PM)
Low37 °F (Nov 18, 11:00 PM)35% (Nov 7, 8:00 PM)29.32 "Hg (Nov 8, 5:00 AM)
Average45 °F75%29.93 "Hg
* Reported Nov 6 7:00 PM — Nov 21 7:00 PM, Osøyro, Weather by CustomWeather, © 2014

Note: Actual official high and low records may vary slightly from our data, if they occured in-between our weather recording intervals... More about our weather records

Advertising

Osøyro weather history for previous 24 hours

 ConditionsComfort  
Time TempWeatherWind HumidityBarometerVisibility
7:00 PM
Nov 21
40 °FRain. Overcast.6 mph94%30.28 "Hg4 mi
6:00 PM40 °FRain showers. Overcast.7 mph93%30.27 "Hg7 mi
5:00 PM40 °FDrizzle. Overcast.7 mph92%30.27 "Hg22 mi
4:00 PM39 °FLight rain. Overcast.7 mph92%30.27 "Hg22 mi
3:00 PM39 °FLight rain. Overcast.5 mph92%30.28 "Hg4 mi
2:00 PM39 °FRain showers. Overcast.5 mph90%30.30 "Hg7 mi
1:00 PM40 °FOvercast.3 mph88%30.31 "Hg31 mi
12:00 PM39 °FOvercast.5 mph90%30.32 "Hg17 mi
11:00 AM38 °FLight rain. Overcast.3 mph91%30.33 "Hg7 mi
10:00 AM39 °FOvercast.3 mph91%30.34 "Hg31 mi
9:00 AM38 °FLight rain. Overcast.3 mph92%30.34 "Hg13 mi
8:00 AM39 °FRain showers. Overcast.3 mph91%30.33 "Hg4 mi
7:00 AM39 °FOvercast.2 mph92%30.33 "Hg25 mi
6:00 AM39 °FOvercast.2 mph92%30.34 "Hg16 mi
5:00 AM39 °FDrizzle. Overcast.2 mph92%30.35 "Hg12 mi
4:00 AM38 °FDrizzle. Overcast.3 mph92%30.36 "Hg3 mi
3:00 AM38 °FDrizzle. Overcast.2 mph93%30.37 "Hg3 mi
2:00 AM39 °FLight rain. Low clouds.3 mph93%30.38 "Hg2 mi
1:00 AM39 °FLight rain. Overcast.3 mph92%30.39 "Hg7 mi
12:00 AM39 °FDrizzle. Low clouds.5 mph92%30.40 "Hg7 mi
11:00 PM
Nov 20
39 °FRain. Overcast.6 mph91%30.41 "Hg4 mi
10:00 PM39 °FLight rain. Overcast.5 mph92%30.41 "Hg7 mi
9:00 PM39 °FOvercast.5 mph90%30.42 "Hg11 mi
8:00 PM39 °FDrizzle. Overcast.5 mph92%30.42 "Hg3 mi
Weather by CustomWeather, © 2014

See weather overviewHow to use our weather pages